Time,TemperatureF,DewpointF,PressureIn,WindDirection,WindDirectionDegrees,WindSpeedMPH,WindSpeedGustMPH,Humidity,HourlyPrecipIn,Conditions,Clouds,dailyrainin,SolarRadiationWatts/m^2,SoftwareType,DateUTC
2013-05-04 00:02:00,57.0,47.0,-100.00,East,86,4.0,19.0,68,0.00,,,0.03,0.000000,,2013-05-04 04:02:00,
2013-05-04 00:33:00,57.0,46.0,-100.00,East,84,6.0,14.0,67,0.00,,,0.03,0.000000,,2013-05-04 04:33:00,
2013-05-04 00:43:00,57.0,46.0,-100.00,East,84,6.0,14.0,67,0.00,,,0.03,0.000000,,2013-05-04 04:43:00,
2013-05-04 00:53:00,57.0,46.0,-100.00,East,84,6.0,14.0,67,0.00,,,0.03,0.000000,,2013-05-04 04:53:00,
2013-05-04 01:02:00,57.0,46.0,-100.00,East,84,6.0,14.0,67,0.00,,,0.03,0.000000,,2013-05-04 05:02:00,
2013-05-04 01:32:00,58.0,46.0,-100.00,ESE,117,7.0,15.0,65,0.00,,,0.03,0.000000,,2013-05-04 05:32:00,
2013-05-04 01:43:00,58.0,46.0,-100.00,ESE,117,7.0,15.0,65,0.00,,,0.03,0.000000,,2013-05-04 05:43:00,
2013-05-04 01:52:00,58.0,46.0,-100.00,ESE,117,7.0,15.0,65,0.00,,,0.03,0.000000,,2013-05-04 05:52:00,
2013-05-04 02:01:00,58.0,46.0,-100.00,ESE,117,7.0,15.0,65,0.00,,,0.03,0.000000,,2013-05-04 06:01:00,
2013-05-04 02:32:00,58.0,46.0,-100.00,ENE,68,3.0,20.0,64,0.00,,,0.03,0.000000,,2013-05-04 06:32:00,
2013-05-04 02:42:00,58.0,46.0,-100.00,ENE,68,3.0,20.0,64,0.00,,,0.03,0.000000,,2013-05-04 06:42:00,
2013-05-04 02:52:00,58.0,46.0,-100.00,ENE,68,3.0,20.0,64,0.00,,,0.03,0.000000,,2013-05-04 06:52:00,
2013-05-04 03:01:00,58.0,46.0,-100.00,ENE,68,3.0,20.0,64,0.00,,,0.03,0.000000,,2013-05-04 07:01:00,
2013-05-04 03:32:00,57.0,45.0,-100.00,ESE,111,7.0,14.0,64,0.01,,,0.04,0.000000,,2013-05-04 07:32:00,
2013-05-04 03:42:00,57.0,45.0,-100.00,ESE,111,7.0,14.0,64,0.01,,,0.04,0.000000,,2013-05-04 07:42:00,
2013-05-04 03:52:00,57.0,45.0,-100.00,ESE,111,7.0,14.0,64,0.01,,,0.04,0.000000,,2013-05-04 07:52:00,
2013-05-04 04:02:00,57.0,45.0,-100.00,ESE,111,7.0,14.0,64,0.01,,,0.04,0.000000,,2013-05-04 08:02:00,
2013-05-04 04:32:00,56.0,43.0,-100.00,East,94,6.0,19.0,62,0.00,,,0.03,0.000000,,2013-05-04 08:32:00,
2013-05-04 04:42:00,56.0,43.0,-100.00,East,94,6.0,19.0,62,0.00,,,0.03,0.000000,,2013-05-04 08:42:00,
2013-05-04 04:52:00,56.0,43.0,-100.00,East,94,6.0,19.0,62,0.00,,,0.03,0.000000,,2013-05-04 08:52:00,
2013-05-04 05:02:00,56.0,43.0,-100.00,East,94,6.0,19.0,62,0.00,,,0.03,0.000000,,2013-05-04 09:02:00,
2013-05-04 05:33:00,55.0,40.0,-100.00,SSE,159,5.0,13.0,57,0.00,,,0.03,0.000000,,2013-05-04 09:33:00,
2013-05-04 05:42:00,55.0,40.0,-100.00,SSE,159,5.0,13.0,57,0.00,,,0.03,0.000000,,2013-05-04 09:42:00,
2013-05-04 05:53:00,55.0,40.0,-100.00,SSE,159,5.0,13.0,57,0.00,,,0.03,0.000000,,2013-05-04 09:53:00,
2013-05-04 06:03:00,55.0,40.0,-100.00,SSE,159,5.0,13.0,57,0.00,,,0.03,0.000000,,2013-05-04 10:03:00,
2013-05-04 06:33:00,54.0,38.0,-100.00,ESE,106,2.0,10.0,55,0.00,,,0.03,0.000000,,2013-05-04 10:33:00,
2013-05-04 06:42:00,54.0,38.0,-100.00,ESE,106,2.0,10.0,55,0.00,,,0.03,0.000000,,2013-05-04 10:42:00,
2013-05-04 06:53:00,54.0,38.0,-100.00,ESE,106,2.0,10.0,55,0.00,,,0.03,0.000000,,2013-05-04 10:53:00,
2013-05-04 07:02:00,54.0,38.0,-100.00,ESE,106,2.0,10.0,55,0.00,,,0.03,0.000000,,2013-05-04 11:02:00,
2013-05-04 07:05:00,54.0,37.0,-100.00,NW,308,3.0,10.0,52,0.00,,,0.03,4.000000,,2013-05-04 11:05:00,
2013-05-04 07:32:00,54.0,37.0,-100.00,NW,308,3.0,10.0,52,0.00,,,0.03,4.000000,,2013-05-04 11:32:00,
2013-05-04 07:46:00,54.0,37.0,-100.00,NW,308,3.0,10.0,52,0.00,,,0.03,4.000000,,2013-05-04 11:46:00,
2013-05-04 08:03:00,54.0,37.0,-100.00,NW,308,3.0,10.0,52,0.00,,,0.03,4.000000,,2013-05-04 12:03:00,
2013-05-04 09:32:00,53.0,42.0,-100.00,East,99,3.0,11.0,66,-99.99,,,0.03,61.000000,,2013-05-04 13:32:00,
2013-05-04 09:42:00,53.0,42.0,-100.00,East,99,3.0,11.0,66,-99.99,,,0.03,61.000000,,2013-05-04 13:42:00,
2013-05-04 09:53:00,53.0,42.0,-100.00,East,99,3.0,11.0,66,-99.99,,,0.03,61.000000,,2013-05-04 13:53:00,
2013-05-04 10:02:00,53.0,42.0,-100.00,East,99,3.0,11.0,66,-99.99,,,0.03,61.000000,,2013-05-04 14:02:00,
2013-05-04 10:32:00,55.0,45.0,-100.00,ENE,68,3.0,11.0,69,0.00,,,0.02,158.000000,,2013-05-04 14:32:00,
2013-05-04 10:42:00,55.0,45.0,-100.00,ENE,68,3.0,11.0,69,0.00,,,0.02,158.000000,,2013-05-04 14:42:00,
2013-05-04 10:52:00,55.0,45.0,-100.00,ENE,68,3.0,11.0,69,0.00,,,0.02,158.000000,,2013-05-04 14:52:00,
2013-05-04 11:02:00,55.0,45.0,-100.00,ENE,68,3.0,11.0,69,0.00,,,0.02,158.000000,,2013-05-04 15:02:00,
2013-05-04 11:33:00,54.0,48.0,-100.00,ESE,103,3.0,10.0,80,0.00,,,0.02,166.000000,,2013-05-04 15:33:00,
2013-05-04 11:43:00,54.0,48.0,-100.00,ESE,103,3.0,10.0,80,0.00,,,0.02,166.000000,,2013-05-04 15:43:00,
2013-05-04 11:53:00,54.0,48.0,-100.00,ESE,103,3.0,10.0,80,0.00,,,0.02,166.000000,,2013-05-04 15:53:00,
2013-05-04 12:03:00,54.0,48.0,-100.00,ESE,103,3.0,10.0,80,0.00,,,0.02,166.000000,,2013-05-04 16:03:00,
2013-05-04 12:33:00,58.0,48.0,-100.00,WNW,285,2.0,11.0,69,0.01,,,0.03,335.000000,,2013-05-04 16:33:00,
2013-05-04 12:42:00,58.0,48.0,-100.00,WNW,285,2.0,11.0,69,0.01,,,0.03,335.000000,,2013-05-04 16:42:00,
2013-05-04 12:52:00,58.0,48.0,-100.00,WNW,285,2.0,11.0,69,0.01,,,0.03,335.000000,,2013-05-04 16:52:00,
2013-05-04 13:02:00,58.0,48.0,-100.00,WNW,285,2.0,11.0,69,0.01,,,0.03,335.000000,,2013-05-04 17:02:00,
2013-05-04 13:33:00,58.0,45.0,-100.00,South,171,7.0,22.0,62,0.00,,,0.03,308.000000,,2013-05-04 17:33:00,
2013-05-04 13:42:00,58.0,45.0,-100.00,South,171,7.0,22.0,62,0.00,,,0.03,308.000000,,2013-05-04 17:42:00,
2013-05-04 13:52:00,58.0,45.0,-100.00,South,171,7.0,22.0,62,0.00,,,0.03,308.000000,,2013-05-04 17:52:00,
2013-05-04 14:01:00,58.0,45.0,-100.00,South,171,7.0,22.0,62,0.00,,,0.03,308.000000,,2013-05-04 18:01:00,
2013-05-04 14:32:00,57.0,48.0,-100.00,East,100,4.0,20.0,71,0.00,,,0.03,157.000000,,2013-05-04 18:32:00,
2013-05-04 14:42:00,57.0,48.0,-100.00,East,100,4.0,20.0,71,0.00,,,0.03,157.000000,,2013-05-04 18:42:00,
2013-05-04 14:52:00,57.0,48.0,-100.00,East,100,4.0,20.0,71,0.00,,,0.03,157.000000,,2013-05-04 18:52:00,
2013-05-04 15:02:00,57.0,48.0,-100.00,East,100,4.0,20.0,71,0.00,,,0.03,157.000000,,2013-05-04 19:02:00,
2013-05-04 15:32:00,56.0,50.0,-100.00,ESE,103,2.0,10.0,80,0.00,,,0.03,200.000000,,2013-05-04 19:32:00,
2013-05-04 15:42:00,56.0,50.0,-100.00,ESE,103,2.0,10.0,80,0.00,,,0.03,200.000000,,2013-05-04 19:42:00,
2013-05-04 15:52:00,56.0,50.0,-100.00,ESE,103,2.0,10.0,80,0.00,,,0.03,200.000000,,2013-05-04 19:52:00,
2013-05-04 16:02:00,56.0,50.0,-100.00,ESE,103,2.0,10.0,80,0.00,,,0.03,200.000000,,2013-05-04 20:02:00,
2013-05-04 16:32:00,54.0,51.0,-100.00,WSW,253,2.0,9.0,88,0.00,,,0.03,75.000000,,2013-05-04 20:32:00,
2013-05-04 16:42:00,54.0,51.0,-100.00,WSW,253,2.0,9.0,88,0.00,,,0.03,75.000000,,2013-05-04 20:42:00,
2013-05-04 16:52:00,54.0,51.0,-100.00,WSW,253,2.0,9.0,88,0.00,,,0.03,75.000000,,2013-05-04 20:52:00,
2013-05-04 17:02:00,54.0,51.0,-100.00,WSW,253,2.0,9.0,88,0.00,,,0.03,75.000000,,2013-05-04 21:02:00,
2013-05-04 17:33:00,54.0,53.0,-100.00,NE,55,1.0,6.0,96,0.00,,,-99.99,84.000000,,2013-05-04 21:33:00,
2013-05-04 17:43:00,54.0,53.0,-100.00,NE,55,1.0,6.0,96,0.00,,,-99.99,84.000000,,2013-05-04 21:43:00,
2013-05-04 17:53:00,54.0,53.0,-100.00,NE,55,1.0,6.0,96,0.00,,,-99.99,84.000000,,2013-05-04 21:53:00,
2013-05-04 18:03:00,54.0,53.0,-100.00,NE,55,1.0,6.0,96,0.00,,,-99.99,84.000000,,2013-05-04 22:03:00,
2013-05-04 18:33:00,53.0,52.0,-100.00,NNE,23,2.0,5.0,96,0.00,,,-99.99,29.000000,,2013-05-04 22:33:00,
2013-05-04 18:43:00,53.0,52.0,-100.00,NNE,23,2.0,5.0,96,0.00,,,-99.99,29.000000,,2013-05-04 22:43:00,
2013-05-04 18:52:00,53.0,52.0,-100.00,NNE,23,2.0,5.0,96,0.00,,,-99.99,29.000000,,2013-05-04 22:52:00,
2013-05-04 19:02:00,53.0,52.0,-100.00,NNE,23,2.0,5.0,96,0.00,,,-99.99,29.000000,,2013-05-04 23:02:00,
2013-05-04 19:32:00,52.0,51.0,-100.00,West,274,3.0,5.0,97,0.01,,,-99.99,11.000000,,2013-05-04 23:32:00,
2013-05-04 19:42:00,52.0,51.0,-100.00,West,274,3.0,5.0,97,0.01,,,-99.99,11.000000,,2013-05-04 23:42:00,
2013-05-04 19:52:00,52.0,51.0,-100.00,West,274,3.0,5.0,97,0.01,,,-99.99,11.000000,,2013-05-04 23:52:00,
2013-05-04 20:02:00,52.0,51.0,-100.00,West,274,3.0,5.0,97,0.01,,,-99.99,11.000000,,2013-05-05 00:02:00,
2013-05-04 20:32:00,52.0,51.0,-100.00,West,265,3.0,7.0,97,0.00,,,-99.99,19.000000,,2013-05-05 00:32:00,
2013-05-04 20:42:00,52.0,51.0,-100.00,West,265,3.0,7.0,97,0.00,,,-99.99,19.000000,,2013-05-05 00:42:00,
2013-05-04 20:52:00,52.0,51.0,-100.00,West,265,3.0,7.0,97,0.00,,,-99.99,19.000000,,2013-05-05 00:52:00,
2013-05-04 21:01:00,52.0,51.0,-100.00,West,265,3.0,7.0,97,0.00,,,-99.99,19.000000,,2013-05-05 01:01:00,
2013-05-04 21:32:00,51.0,50.0,-100.00,SSW,210,1.0,3.0,97,0.00,,,0.03,0.000000,,2013-05-05 01:32:00,
2013-05-04 21:42:00,51.0,50.0,-100.00,SSW,210,1.0,3.0,97,0.00,,,0.03,0.000000,,2013-05-05 01:42:00,
2013-05-04 21:52:00,51.0,50.0,-100.00,SSW,210,1.0,3.0,97,0.00,,,0.03,0.000000,,2013-05-05 01:52:00,
2013-05-04 22:02:00,51.0,50.0,-100.00,SSW,210,1.0,3.0,97,0.00,,,0.03,0.000000,,2013-05-05 02:02:00,
2013-05-04 22:32:00,51.0,50.0,-100.00,WSW,241,3.0,5.0,98,0.00,,,0.03,0.000000,,2013-05-05 02:32:00,
2013-05-04 22:42:00,51.0,50.0,-100.00,WSW,241,3.0,5.0,98,0.00,,,0.03,0.000000,,2013-05-05 02:42:00,
2013-05-04 22:52:00,51.0,50.0,-100.00,WSW,241,3.0,5.0,98,0.00,,,0.03,0.000000,,2013-05-05 02:52:00,
2013-05-04 23:01:00,51.0,50.0,-100.00,WSW,241,3.0,5.0,98,0.00,,,0.03,0.000000,,2013-05-05 03:01:00,
2013-05-04 23:33:00,51.0,50.0,-100.00,SW,229,1.0,2.0,98,0.00,,,0.03,0.000000,,2013-05-05 03:33:00,
2013-05-04 23:42:00,51.0,50.0,-100.00,SW,229,1.0,2.0,98,0.00,,,0.03,0.000000,,2013-05-05 03:42:00,
2013-05-04 23:53:00,51.0,50.0,-100.00,SW,229,1.0,2.0,98,0.00,,,0.03,0.000000,,2013-05-05 03:53:00,